Regional Weather Roundup
Issued by NWS

Home | Current Version | Previous Version | Text Only | Print | Product List | Glossary On
Versions: 1 2 3 4 5 6 7 8 9 10 11 12 13 14 15 16 17 18 19 20 21 22 23 24 25 26 27 28 29 30 31 32 33 34 35 36 37 38 39 40 41 42 43 44 45 46 47 48 49 50
000
ASUS44 KOUN 051110
RWROK

WEATHER ROUNDUP FOR OKLAHOMA
NATIONAL WEATHER SERVICE NORMAN OK
600 AM CDT THU MAY 05 2016

NOTE: "FAIR" INDICATES FEW OR NO CLOUDS BELOW 12,000 FEET WITH NO
      SIGNIFICANT WEATHER AND/OR OBSTRUCTIONS TO VISIBILITY.

OKZ001>007-009>012-014-015-017-051200-
NORTHWEST OKLAHOMA AND THE PANHANDLE

CITY           SKY/WX    TMP DP  RH WIND       PRES   REMARKS
GAGE           CLEAR     46  43  89 W5        30.11R
GUYMON         CLEAR     48  41  76 CALM      30.12R
ENID/WOODRING  CLEAR     45  43  93 N5        30.06S
$$

OKZ016-021>023-033>039-044-045-051200-
SOUTHWEST OKLAHOMA

CITY           SKY/WX    TMP DP  RH WIND       PRES   REMARKS
LAWTON/REGL    CLEAR     49  47  93 CALM      30.08R
LAWTON/FT SILL CLEAR     54  46  73 NW2       30.07R
FREDERICK      CLEAR     53  49  86 N3        30.07R
CLINTON        CLEAR     49  44  83 CALM      30.12R
HOBART         CLEAR     53  45  74 CALM      30.10R
ALTUS AFB      CLEAR     52  47  81 N2        30.09R
$$

OKZ018>020-024>031-051200-
CENTRAL OKLAHOMA

CITY           SKY/WX    TMP DP  RH WIND       PRES   REMARKS
OKLAHOMA CITY  CLEAR     52  41  66 NW6       30.07R
OKC/WILEY POST CLEAR     45  41  86 SW3       30.07S
OKC/TINKER AFB CLEAR     55  40  57 NW3       30.06R
STILLWATER     CLEAR     41  40  96 W3        30.06R
GUTHRIE        CLEAR     43  41  93 CALM      30.07R
$$

OKZ008-013-054>072-051200-
NORTHEAST OKLAHOMA

CITY           SKY/WX    TMP DP  RH WIND       PRES   REMARKS
TULSA          CLEAR     49  44  83 CALM      30.03R
TULSA/JONES    CLEAR     46  43  89 CALM      30.05R
PONCA CITY     CLEAR     41  39  93 CALM      30.07R
BARTLESVILLE   CLEAR     40  38  93 CALM      30.06R
MUSKOGEE       CLEAR     45  41  86 CALM      30.06R
$$

OKZ032-040>043-046>053-073>077-051200-
SOUTH CENTRAL/SOUTHEAST OKLAHOMA

CITY           SKY/WX    TMP DP  RH WIND       PRES   REMARKS
ARDMORE/DWNTWN   N/A     46  45  93 CALM      30.06R
MCALESTER      MOCLDY    44  41  89 CALM      30.05R
$$




USA.gov is the U.S. government's official web portal to all federal, state and local government web resources and services.